Regional Weather Roundup
Issued by NWS

Home | Current Version | Previous Version | Graphics & Text | Print | Product List | Glossary Off
Versions: 1 2 3 4 5 6 7 8 9 10 11 12 13 14 15 16 17 18 19 20 21 22 23 24 25 26 27 28 29 30 31 32 33 34 35 36 37 38 39 40 41 42 43 44 45 46 47 48 49 50

000
ASUS43 KLMK 012210
RWRKY
KENTUCKY REGIONAL WEATHER ROUNDUP
NATIONAL WEATHER SERVICE LOUISVILLE KY
600 PM EDT TUE SEP 01 2015

NOTE "FAIR" INDICATES FEW OR NO CLOUDS BELOW 12,000 FEET
WITH NO SIGNIFICANT WEATHER AND/OR OBSTRUCTIONS TO VISIBILITY.

KYZ001>023-026-027-061>063-070>075-012300-
WESTERN AND SOUTH CENTRAL KENTUCKY

CITY           SKY/WX    TMP DP  RH WIND       PRES   REMARKS
PADUCAH        MOSUNNY   89  67  47 CALM      30.06S HX  92
HENDERSON      MOSUNNY   91  66  43 S3        30.05F HX  94
OWENSBORO      MOSUNNY   91  68  46 SW7       30.07F HX  95
HOPKINSVILLE   PTSUNNY   87  67  50 NW3       30.07F
BOWLING GREEN  PTSUNNY   87  67  51 NW9       30.09S HX  90
GLASGOW        PTSUNNY   87  62  42 E3        30.10S
$$

KYZ024-025-028>034-038-045-046-053-012300-
NORTH CENTRAL KENTUCKY

CITY           SKY/WX    TMP DP  RH WIND       PRES   REMARKS
LOUISVILLE/SDF PTSUNNY   89  64  43 SW8       30.07S HX  90
LOUISVILLE/LOU SUNNY     88  63  43 CALM      30.08F
FORT KNOX      MOSUNNY   88  66  47 S3        30.08S HX  90
$$

KYZ035>037-039>044-047>052-055>060-089>105-012300-
NORTHEAST KENTUCKY

CITY           SKY/WX    TMP DP  RH WIND       PRES   REMARKS
LEXINGTON      MOSUNNY   88  62  41 NW5       30.11S
COVINGTON      PTSUNNY   86  64  47 SW3       30.09F
FRANKFORT      SUNNY     88  62  41 NW6       30.09S
$$

KYZ054-064>069-076>088-106>120-012300-
SOUTHEAST KENTUCKY

CITY           SKY/WX    TMP DP  RH WIND       PRES   REMARKS
JACKSON        MOSUNNY   84  65  52 CALM      30.13S
LONDON         MOSUNNY   85  62  46 CALM      30.12S
SOMERSET       MOSUNNY   86  59  39 CALM      30.12S
MIDDLESBORO    PTSUNNY   85  68  56 N5        30.12R
MONTICELLO     MOCLDY    86  70  58 CALM      30.14S HX  90
$$



USA.gov is the U.S. government's official web portal to all federal, state and local government web resources and services.